Location: Unspecified
(41.8314°N, 0.0000°E)
Time: 09:27:11
(UTC+00:00)

BB4 - Visible Passes

Search period start: 04 April 2026 00:00
Search period end: 14 April 2026 00:00
Orbit: 856 x 867 km, 81.0° (Epoch: 24 March)

Date Brightness Start Highest point End Pass type
(mag) Time Alt. Az. Time Alt. Az. Time Alt. Az.
4 Apr ? 02:01:49 10° NNE 02:04:55 15° ENE 02:07:58 10° E visible
4 Apr ? 03:43:06 10° NNW 03:48:48 79° W 03:54:27 10° S visible
5 Apr ? 01:53:03 10° NNE 01:56:04 14° ENE 01:59:03 10° E visible
5 Apr ? 03:34:17 10° NNW 03:39:59 80° W 03:45:38 10° S visible
6 Apr ? 01:44:17 10° NNE 01:47:13 14° ENE 01:50:08 10° E visible
6 Apr ? 03:25:27 10° NNW 03:31:10 82° W 03:35:48 16° S visible
7 Apr ? 01:35:31 10° NNE 01:38:23 14° ENE 01:41:13 10° E visible
7 Apr ? 03:16:37 10° NNW 03:22:19 83° W 03:25:36 27° S visible
8 Apr ? 01:26:46 10° NNE 01:29:32 14° ENE 01:32:17 10° E visible
8 Apr ? 03:07:48 10° NNW 03:13:29 85° W 03:15:46 38° S visible
8 Apr ? 04:55:05 10° WNW 04:55:41 10° W 04:56:18 10° W visible
9 Apr ? 01:18:01 10° NE 01:20:41 13° ENE 01:23:21 10° E visible
9 Apr ? 02:58:58 10° N 03:04:41 86° WSW 03:06:11 51° S visible
9 Apr ? 04:45:56 10° WNW 04:46:53 10° W 04:47:50 10° W visible
10 Apr ? 01:09:16 10° NE 01:11:51 13° ENE 01:14:25 10° E visible
10 Apr ? 02:50:08 10° N 02:55:51 88° W 02:56:45 65° S visible
10 Apr ? 04:36:51 10° WNW 04:38:04 11° W 04:38:57 10° W visible
11 Apr ? 01:00:31 10° NE 01:03:00 13° ENE 01:05:15 10° E visible
11 Apr ? 02:41:19 10° N 02:47:01 89° W 02:47:27 78° S visible
11 Apr ? 04:27:51 10° WNW 04:29:15 11° W 04:29:38 11° W visible
12 Apr ? 00:51:46 10° NE 00:54:09 13° ENE 00:56:01 11° E visible
12 Apr ? 02:32:29 10° N 02:38:11 90° E 02:38:13 89° SSE visible
12 Apr ? 04:18:51 10° WNW 04:20:24 11° W 04:20:24 11° W visible
13 Apr ? 00:43:02 10° NE 00:45:19 12° ENE 00:46:50 11° ENE visible
13 Apr ? 02:23:39 10° N 02:29:03 81° N 02:29:03 81° N visible
13 Apr ? 04:09:53 10° WNW 04:11:14 11° WNW 04:11:14 11° WNW visible
